NOAA 16 DEB, 41403

Orbit data source: Space-Track

NOAA 16 DEB, 41403 is space debris in SSO originally from a launch on Thu, 21 Sep 2000 UTC launched from the Air Force Western Test Range (AFWTR). Debris objects in space refer to the collection of defunct objects orbiting the Earth. Examples of debris include non-operational satellites, rocket bodies, and fragments generated from explosions, collisions, or faulty payload assembly.

Loading next visibility...
Identifier
41403, 2000-055KG
Orbit
SSO
Country
Flag of USUS
Related business
Manufacturer
Unknown
Mission
Spacecraft
Bus & Motor
Unknown
Mass
Unknown
Launch date (UTC)
2000-09-21 (25 years ago)
Launch vehicle
Unknown
Launch site
Air Force Western Test Range (AFWTR)
Object type
Payload
Rocket body
Debris
Shape & HBR
Unknown shape, 0.1 m
Radar Cross Section
Small (<0.1 m²)

Expand to show TLE details & history
Last TLE update: 2 days ago

TLE from 2 days ago
0 NOAA 16 DEB
1 41403U 00055KG  25295.36987715  .00014014  00000-0  37668-2 0  9993
2 41403  98.9150  90.5002 0019737 125.2208 235.0835 14.48041859504558
Epoch: 2025-10-22T08:52Z
TLE epoch observation values (Epoch: 2025-10-22T08:52:37.385Z)
Latitude
0.00002°
Longitude
-73.70004°
Altitude
743.05 km
Speed
7.479 km/s
True Right ascension
06h 02m 00s
True Declination
0° 00' 00"
Sunlit
Object was in daylight at epoch
Visualization orbit readout
Latitude
Unknown
Longitude
Unknown
Altitude
Unknown
Speed
Unknown
Apparent Right ascension
Unknown
Apparent Declination
Unknown
Sunlit
N/A
Visualization observer readout
Local Sidereal Time
21:04:59
Azimuth
Unknown
Elevation
Unknown
Doppler factor
Unknown
Orbital elements
Apogee altitude
743.21 km
Perigee altitude
715.155 km
Semi-major axis
7,107.319 km
Eccentricity
0.00197
Inclination
98.915°
RAAN
90.5002°
Arg. of periapsis
125.2208°
True anomaly
234.89831°
Mean anomaly
235.0835°
Eccentric anomaly
234.99088°
Mean motion
3.6223 °/min
Orbital period
99.38 mins
BSTAR
0.0037668
Loading maneuver chart data...
Computing Atmospheric mass density...
Loading historical data...
Loading historical data...
Loading historical data...
Loading historical data...
Loading historical data...
Loading historical data...
Loading historical data...

Documentation

Showing up to 5 results
|